This demonstration page uses our WeatherBlox Daily Observations layout. Learn more.

Left ArrowRight Arrow

41.86663, -103.66717

Hourly Observations for August 20, 2018

Temp ( °F °C ) Dew Point ( °F °C ) Humidity (%) Winds ( mph kmh ) Pressure ( in mb ) Visibility ( mi km ) Precip ( " mm )
12:53 am 00:53 Clear with Mist and Fog 49 9.4 47 8.3 93 93 WNW 5 7 30.19 1023 5 8 0.00 0.00
1:53 am 01:53 Clear with Mist and Fog 47 8.3 47 8.3 100 100 WSW 7 11 30.20 1023 5 8 0.00 0.00
2:53 am 02:53 Clear with Mist and Fog 45 7.2 45 7.2 100 100 NW 7 11 30.20 1023 4 6 0.00 0.00
3:53 am 03:53 Clear with Mist and Fog 44 6.7 44 6.7 100 100 NW 7 11 30.20 1023 3 5 0.00 0.00
4:05 am 04:05 Clear with Mist and Fog 43 6.1 43 6.1 100 100 WNW 7 11 30.24 1024 3 4 0.00 0.00
4:26 am 04:26 Clear with Mist and Fog 43 6 43 6 100 100 WNW 7 11 30.24 1024 3 5 0.00 0.00
4:46 am 04:46 Clear with Mist and Fog 43 6 43 6 100 100 WNW 8 13 30.24 1024 3 4 0.00 0.00
4:53 am 04:53 Clear with Mist and Fog 43 6.1 43 6.1 100 100 WNW 8 13 30.20 1023 3 5 0.00 0.00
5:42 am 05:42 Clear with Mist and Fog 43 6 43 6 100 100 NW 9 15 30.30 1026 3 4 0.00 0.00
5:53 am 05:53 Clear with Mist and Fog 42 5.6 42 5.6 100 100 NW 8 13 30.20 1023 3 4 0.00 0.00
6:11 am 06:11 Sunny with Mist and Fog 42 5.6 42 5.6 100 100 NW 7 11 30.30 1026 3 5 0.00 0.00
6:18 am 06:18 Sunny with Mist and Fog 43 6 43 6 100 100 NW 6 9 30.30 1026 2 3 0.00 0.00
6:25 am 06:25 Sunny with Mist and Fog 41 5 41 5 100 100 NW 7 11 30.30 1026 2 3 0.00 0.00
6:53 am 06:53 Sunny with Mist and Fog 43 6.1 43 6.1 100 100 NW 8 13 30.22 1024 2 3 0.00 0.00
7:09 am 07:09 Sunny with Mist and Fog 43 6.1 43 6.1 100 100 NW 7 11 30.30 1026 2 3 0.00 0.00
7:53 am 07:53 Sunny with Mist and Fog 47 8.3 47 8.3 100 100 NW 6 9 30.24 1024 3 4 0.00 0.00
8:03 am 08:03 Sunny with Mist and Fog 47 8.3 47 8.3 100 100 NW 5 7 30.24 1024 3 5 0.00 0.00
8:53 am 08:53 Sunny with Mist and Fog 51 10.6 48 8.9 89 89 Calm 30.23 1024 5 8 0.00 0.00
9:53 am 09:53 Hazy 59 15 47 8.3 64 64 Calm 30.20 1023 6 10 0.00 0.00
10:53 am 10:53 Sunny 63 17.2 46 7.8 54 54 VRB 5 7 30.19 1022 10 16 0.00 0.00
11:53 am 11:53 Sunny 66 18.9 44 6.7 45 45 VRB 3 6 30.18 1022 10 16 0.00 0.00
12:53 pm 12:53 Sunny 69 20.6 42 5.6 38 38 undefined N/A 30.15 1021 10 16 0.00 0.00
1:53 pm 13:53 Sunny 70 21.1 43 6.1 38 38 VRB 5 7 30.13 1020 10 16 0.00 0.00
2:53 pm 14:53 Sunny 72 22.2 42 5.6 34 34 SE 5 7 30.13 1020 10 16 0.00 0.00
3:53 pm 15:53 Sunny 72 22.2 42 5.6 34 34 E 9 15 30.11 1020 10 16 0.00 0.00
4:53 pm 16:53 Sunny 71 21.7 42 5.6 35 35 ESE 10 17 30.12 1020 10 16 0.00 0.00
5:53 pm 17:53 Sunny 70 21.1 45 7.2 41 41 ESE 9 15 30.11 1020 10 16 0.00 0.00
6:53 pm 18:53 Sunny 64 17.8 48 8.9 56 56 E 7 11 30.14 1021 10 16 0.00 0.00
7:53 pm 19:53 Clear 58 14.4 51 10.6 78 78 ENE 7 11 30.16 1021 10 16 0.00 0.00
8:53 pm 20:53 Clear 57 13.9 48 8.9 72 72 ENE 8 13 30.17 1022 10 16 0.00 0.00
9:53 pm 21:53 Clear 55 12.8 49 9.4 80 80 E 8 13 30.16 1021 10 16 0.00 0.00
10:53 pm 22:53 Clear 55 12.8 48 8.9 77 77 ESE 10 17 30.14 1021 10 16 0.00 0.00

Powered by AerisWeather